Other Surface Observations
Issued by NWS

Home | Current Version | Previous Version | Text Only | Print | Product List | Glossary On
Versions: 1 2 3 4 5 6 7 8 9 10 11 12 13 14 15 16 17 18 19 20 21 22 23 24 25 26 27 28 29 30 31 32 33 34 35 36 37 38 39 40 41 42 43 44 45 46 47 48 49 50
009
SXUS52 KTAE 230318
OSOTAE
OSOTAE
North Florida/South Alabama/Southwest Georgia Weather Roundup
National Weather Service Tallahassee Florida
1100 PM EDT SUN APR 22 2018

Note: "fair" indicates few or no clouds below 12,000 feet with no
significant weather and/or obstructions to visibility.

!FLZ017-115-028-034-025-230400
...North Florida...

CITY           SKY/WX    TMP DP  RH WIND       PRES   REMARKS
TALLAHASSEE    RAIN      70  69  97 SE5       30.00S
APALACHICOLA   LGT RAIN  72  72 100 S13       29.98S
PERRY          RAIN      71  67  86 E13       30.00S
CROSS CITY     MOCLDY    72  69  89 SE8       30.04R
JACKSONVILLE   LGT RAIN  70  68  93 SE13      30.09S
$$

!FLZ112-006-005-002-011-230400
...Florida Panhandle...

CITY           SKY/WX    TMP DP  RH WIND       PRES   REMARKS
MARIANNA       LGT RAIN  71  69  93 S6        29.95F
BONIFAY        RAIN      69  69 100 SE8       29.95F FOG
PANAMA CITY NW CLOUDY    68  66  93 SE7       29.94S
TYNDALL AFB    CLOUDY    70  68  94 S13       29.95S
TYND DRONE APT LGT RAIN  70  68  92 S17G24    29.96R
DE FUNIAK SPR  CLOUDY    68  67  96 S6        29.95R
EGLIN AFB      CLOUDY    70  68  94 SW7       29.92R
DESTIN         FAIR      73  67  81 VRB3      29.93R
HURLBURT       CLOUDY    70  68  94 S7        29.91S
CRESTVIEW      CLOUDY    68  66  93 CALM      29.95R
PENSACOLA      CLOUDY    71  68  90 S12       29.92R
$$

!ALZ063-066-230400
...South Alabama...

CITY           SKY/WX    TMP DP  RH WIND       PRES   REMARKS
DOTHAN         LGT RAIN  69  67  93 S14       29.98S
OZARK CAIRNS   LGT RAIN  68  66  94 S7        29.94R
FT RUCKER HELI CLOUDY    68  66  94 S7        29.93S
RUCKER HELI 3  CLOUDY    68  66  94 S10       29.93
RUCKER HELI 2  CLOUDY    68  66  94 S7        29.93S
FLORALA APT    CLOUDY    69  66  90 S9        29.95S
ANDALUSIA      CLOUDY    71  66  84 VRB3      29.92R
TROY           LGT RAIN  68  67  96 S8        29.93R
EUFALA         RAIN      66  65  96 E9        29.94S FOG
MOBILE         FAIR      65  62  90 CALM      29.92S
$$

!GAZ120>161-230400
...Southwest and South Central Georgia...

CITY           SKY/WX    TMP DP  RH WIND       PRES   REMARKS
THOMASVILLE    RAIN     N/A N/A N/A SE9       30.03R
BAINBRIDGE       N/A     70  70 100 SE9       29.98F
MOODY AFB      CLOUDY    67  64  91 E13       30.03F
VALDOSTA       CLOUDY    68  64  87 SE8G18    30.03F
MOULTRIE       LGT RAIN  66  64  94 E6G16     30.03S
BLAKELY        RAIN      70  66  88 SE5       29.98S
ALBANY         HVY RAIN  66  65  96 S9        30.02F FOG
TIFTON         CLOUDY    65  65 100 SE12G22   30.04F
FITZGERALD     DRIZZLE   66  63  89 SE9G22    30.08F
CORDELE        LGT RAIN  68  64  86 E15G21    30.04F
AMERICUS       LGT RAIN  63  57  82 SE16G22   30.03F
HOMERVILLE     CLOUDY    66  63  88 SE12G23   30.06F
$$

!GMZ750-755-770-775-230400
...Coastal and Buoy Obs...

STATION/POSITION TIME  TEMP    WIND        PRES    VSBY  WAVE
                       AIR SEA DIR/SP/G                  HT/PER
                 (UTC) (F)     (DEG/KT/KT) (MB)    (MI)  (FT/S)
KEATON BEACH     0200   73     100/ 16/ 22 1015.8F
CEDAR KEY        0300   73     130/ 16/ 17 1017.3S
C TOWER          0200   71     170/ 20/ 23 1015.4R
APALACHICOLA BUO NOT AVBL
PANAMA CITY BUOY 0250   72 74  220/ 10/ 12 1014.0R         4/ 6
MOBILE BUOY      0300      73  250/ 16/ 17 1014.0
ORANGE BCH AL BU 0300   71     200/ 12/ 16 1012.9
$$




USA.gov is the U.S. government's official web portal to all federal, state and local government web resources and services.